Weather History for Marathon, FL

Change the Weather History Date:

Wednesday, November 16, 2011

  Actual Average Record
Temperature  
Mean Temperature 81 °F 76 °F  
Max Temperature 85 °F 80 °F 86 °F (2006)
Min Temperature 76 °F 71 °F 60 °F (2007)
Degree Days  
Heating Degree Days 0 0  
Month to date heating degree days 0 0  
Since 1 July heating degree days 0 0  
Cooling Degree Days 16 11  
Month to date cooling degree days 178 187  
Year to date cooling degree days 4957 4626  
Growing Degree Days 31 (Base 50)    
Moisture  
Dew Point 75 °F    
Average Humidity 81    
Maximum Humidity 91    
Minimum Humidity 70    
Precipitation  
Precipitation 0.00 in 0.11 in 0.18 in (2002)
Month to date precipitation 0.08 1.78  
Year to date precipitation 35.59 43.11  
Snow  
Snow 0.00 in - - ()
Month to date snowfall 0.0  
Since 1 July snowfall 0.0  
Since 1 September snowfall 0.0  
Snow Depth 0.00 in    
Sea Level Pressure  
Sea Level Pressure 30.01 in    
Wind  
Wind Speed 7 mph (ESE)    
Max Wind Speed 13 mph    
Max Gust Speed 18 mph    
Visibility 10 miles    
Events      
T = Trace of Precipitation, MM = Missing Value Source: NWS Daily Summary

Daily Weather History Graph

Daily Weather History Graph

Search for Another Location

Airport:

Trip Planner

Search our weather history database for the weather conditions in past years. The results will help you decide how hot, cold, wet, or windy it might be!

Date:

Astronomy

Nov. 16, 2011 Rise Set
Actual Time 6:40 AM EST 5:36 PM EST
Civil Twilight 6:16 AM EST 6:00 PM EST
Nautical Twilight 5:49 AM EST 6:28 PM EST
Astronomical Twilight 5:21 AM EST 6:55 PM EST
Moon 10:43 PM EST 11:18 AM EST
Length of Visible Light 11h 44m
Length of Day
10h 55m
Waning Gibbous, 70% of the Moon is Illuminated
Nov 16
Waning Gibbous
Nov 18
Last Quarter
Nov 25
New
Dec 2
First Quarter
Dec 10
Full

Hourly Weather History & Observations

Time (EST) Temp. Heat Index Dew Point Humidity Pressure Visibility Wind Dir Wind Speed Gust Speed Precip Events Conditions
12:53 AM 78.1 °F - 75.0 °F 90% 30.02 in 10.0 mi ESE 5.8 mph - N/A   Clear
1:53 AM 78.1 °F - 75.0 °F 90% 30.01 in 10.0 mi ESE 5.8 mph - N/A   Clear
2:53 AM 78.1 °F - 75.0 °F 90% 30.01 in 10.0 mi ESE 4.6 mph - N/A   Clear
3:53 AM 78.1 °F - 75.9 °F 93% 30.01 in 10.0 mi ESE 6.9 mph - N/A   Partly Cloudy
4:53 AM 78.1 °F - 75.0 °F 90% 30.00 in 10.0 mi ESE 8.1 mph - N/A   Mostly Cloudy
5:04 AM 78.8 °F - 75.2 °F 89% 30.00 in 10.0 mi ESE 6.9 mph - N/A   Scattered Clouds
5:53 AM 78.1 °F - 75.0 °F 90% 30.00 in 10.0 mi ESE 6.9 mph - N/A   Partly Cloudy
6:53 AM 78.1 °F - 75.0 °F 90% 30.01 in 10.0 mi SE 10.4 mph - N/A   Partly Cloudy
7:53 AM 79.0 °F - 73.9 °F 84% 30.02 in 10.0 mi SE 9.2 mph - N/A   Clear
8:53 AM 81.0 °F 86.2 °F 73.9 °F 79% 30.04 in 10.0 mi SE 10.4 mph - N/A   Clear
9:53 AM 82.0 °F 88.6 °F 75.0 °F 79% 30.04 in 10.0 mi SE 8.1 mph - N/A   Clear
10:53 AM 82.9 °F 90.2 °F 75.0 °F 77% 30.03 in 10.0 mi SE 9.2 mph - N/A   Partly Cloudy
11:53 AM 84.0 °F 91.2 °F 73.9 °F 72% 30.01 in 10.0 mi SE 6.9 mph - N/A   Clear
12:53 PM 84.0 °F 91.2 °F 73.9 °F 72% 30.00 in 10.0 mi Variable 5.8 mph - N/A   Clear
1:53 PM 84.0 °F 91.9 °F 75.0 °F 74% 29.98 in 10.0 mi Variable 4.6 mph - N/A   Partly Cloudy
2:53 PM 82.9 °F 89.4 °F 73.9 °F 74% 29.97 in 10.0 mi SE 4.6 mph - N/A   Clear
3:53 PM 82.0 °F 87.4 °F 73.0 °F 74% 29.97 in 10.0 mi ESE 5.8 mph - N/A   Clear
4:53 PM 81.0 °F 86.2 °F 73.9 °F 79% 29.96 in 10.0 mi ESE 4.6 mph - N/A   Mostly Cloudy
5:08 PM 80.6 °F 85.4 °F 73.4 °F 79% 29.97 in 10.0 mi East 3.5 mph - N/A   Mostly Cloudy
6:53 PM 79.0 °F - 75.0 °F 88% 30.00 in 10.0 mi East 8.1 mph - N/A   Clear
7:53 PM 79.0 °F - 75.0 °F 88% 30.01 in 10.0 mi ENE 6.9 mph - N/A   Clear
8:53 PM 79.0 °F - 75.9 °F 90% 30.02 in 10.0 mi ENE 8.1 mph - N/A   Clear
9:53 PM 79.0 °F - 75.9 °F 90% 30.02 in 10.0 mi ENE 6.9 mph - N/A   Clear
10:53 PM 78.1 °F - 75.0 °F 90% 30.02 in 10.0 mi East 4.6 mph - N/A   Clear
11:53 PM 77.0 °F - 75.0 °F 94% 30.01 in 10.0 mi East 3.5 mph - N/A   Clear